Regional Weather Roundup
Issued by NWS

Home | Current Version | Previous Version | Graphics & Text | Print | Product List | Glossary On
Versions: 1 2 3 4 5 6 7 8 9 10 11 12 13 14 15 16 17 18 19 20 21 22 23 24 25 26 27 28 29 30 31 32 33 34 35 36 37 38 39 40 41 42 43 44 45 46 47 48 49 50
628
ASUS43 KMPX 220710
RWRMN
WEATHER ROUNDUP FOR MINNESOTA
NATIONAL WEATHER SERVICE TWIN CITIES/CHANHASSEN MN
100 AM CST WED NOV 22 2017


NOTE: "FAIR" INDICATES FEW OR NO CLOUDS BELOW 12,000 FEET WITH NO
SIGNIFICANT WEATHER AND/OR OBSTRUCTIONS TO VISIBILITY. N/A MEANS
CURRENT SKY AND/OR WEATHER CONDITIONS ARE NOT AVAILABLE.

MNZ060>063-068>070-220800-
   Twin Cities Metro

CITY           SKY/WX    TMP DP  RH WIND       PRES   REMARKS
TWIN CITIES    CLOUDY    18  11  74 NW8       30.35R WCI   8
ST PAUL        CLOUDY    17  10  74 NW7       30.37R WCI   8
CRYSTAL        CLOUDY    16   7  67 W7        30.34R WCI   6
BLAINE         CLOUDY    16  10  79 NW6       30.33F WCI   7
LAKEVILLE      CLOUDY    16  10  79 NW7       30.34S WCI   6
EDEN PRAIRIE   CLOUDY    18  10  71 NW7       30.34S WCI   9
SOUTH ST PAUL  CLOUDY    18  10  71 NW3       30.35S
LAKE ELMO      FAIR      18  12  79 NW3       30.35S
$$
MNZ001>005-007-008-013>017-022>024-027-028-220800-
   Northwest Minnesota

CITY           SKY/WX    TMP DP  RH WIND       PRES   REMARKS
BEMIDJI        CLOUDY     9   6  89 W7        30.29R WCI  -2
HALLOCK        PTCLDY     5   1  85 S7        30.27F WCI  -7
ROSEAU         CLOUDY    12   7  79 SW7       30.26S WCI   2
WARROAD        CLOUDY    10   7  85 SW6       30.26S WCI   1
THIEF RVR FALL CLOUDY     8   6  92 SW5       30.30F WCI   0
CROOKSTON      CLOUDY    10   9  92 W5        30.33F WCI   2
FOSSTON        CLOUDY     7   3  85 W3        30.30F
DETROIT LAKES  CLOUDY    12  10  92 W6        30.31S WCI   3
MOORHEAD       CLOUDY     9   3  78 CALM      30.35F
PARK RAPIDS    CLOUDY    10   5  80 W7        30.29R WCI  -1
MAHNOMEN       FAIR       9   6  87 W6        30.31R WCI   0
$$
MNZ006-009>011-018-025>026-220800-
   North Central Minnesota

CITY           SKY/WX    TMP DP  RH WIND       PRES   REMARKS
BAUDETTE       CLOUDY     8   5  87 SW6       30.24S WCI  -2
FLAG ISLAND    CLOUDY     9   7  92 SW3       30.22F
INTL FALLS       N/A      8   4  83 W5        30.24S WCI   0
WASKISH        CLOUDY    12  10  92 W6        30.27S WCI   3
BIG FORK       CLOUDY     7   3  85 CALM      30.26S
LONGVILLE      CLOUDY    10   9  92 CALM      30.28S
GRAND RAPIDS   CLOUDY    12   9  87 W6        30.29S WCI   3
CRANE LAKE     CLOUDY    12  10  92 CALM      30.27R
ORR            CLOUDY     9   3  78 CALM      30.23R
COOK           CLOUDY     9   7  92 W3        30.25S
WALKER         FAIR       8   6  89 W7        30.29R WCI  -3
$$
MNZ012-019>021-037-220800-
   Northeast Minnesota

CITY           SKY/WX    TMP DP  RH WIND       PRES   REMARKS
DULUTH         CLEAR     14   9  80 NW12      30.23R WCI   0
ELY            FLURRIES  14  10  85 W9        30.22R WCI   2
HIBBING        CLOUDY    11   7  84 W6        30.26R WCI   1
EVELETH        FLURRIES  13   7  76 NW10      30.26R WCI   0
DULUTH HARBOR  CLOUDY    19  12  73 W7        30.31R WCI  10
TWO HARBORS    CLEAR     18  10  73 W6        30.22R WCI   9
SILVER BAY     CLEAR     16  10  79 CALM      30.21R
GRAND MARAIS     N/A     21  12  68 W8        30.22R WCI  11
G MARAIS ARPRT PTCLDY    12   7  79 NW8G16    30.12S WCI   1
$$
MNZ029>031-032-039>041-046>048-054>057-064-220800-
   West Central Minnesota

CITY           SKY/WX    TMP DP  RH WIND       PRES   REMARKS
FERGUS FALLS   CLOUDY     9   7  92 W3        30.38S
WHEATON        CLOUDY    10   7  85 S3        30.37F
MORRIS         CLOUDY    10   7  85 W3        30.33F
ALEXANDRIA     CLOUDY    12   9  87 W6        30.31F WCI   3
ELBOW LAKE     FAIR      10   8  89 NW3       30.33F
WADENA         CLOUDY    10   7  85 W3        30.30S
GLENWOOD       CLOUDY    10   9  92 W3        30.31F
APPLETON         N/A     12   7  79 W5        30.36F WCI   4
BENSON         CLOUDY    10   7  85 CALM      30.36F
ORTONVILLE     CLOUDY    12   7  79 MISG      30.35F
MADISON        CLOUDY    14   9  79 W3        30.37F
WILLMAR        FAIR      14  10  85 CALM      30.35F
$$
MNZ033>034-036-042>043-049>051-058-059-220800-
   Central Minnesota

CITY           SKY/WX    TMP DP  RH WIND       PRES   REMARKS
ST CLOUD       CLEAR     14   9  80 NW7       30.33F WCI   4
SAUK CENTRE    FAIR      13   9  86 CALM      30.32F
PAYNESVILLE    CLOUDY    11  10  95 CALM      30.33F
AITKIN         CLOUDY     9   7  92 CALM      30.28S
PINE RIVER     CLOUDY    10   7  85 CALM      30.31F
BRAINERD       CLOUDY    15   9  76 NW5       30.30S WCI   8
STAPLES        CLOUDY     7   3  85 W5        30.30S WCI  -2
LONG PRAIRIE   FAIR      14  10  85 SW3       30.31F
LITTLE FALLS   CLOUDY    12   5  73 CALM      30.33S
LITCHFIELD     CLOUDY    18  12  79 NW5       30.34F WCI  11
BUFFALO        CLOUDY    16  10  76 W5        30.36S WCI   9
MAPLE LAKE     CLOUDY    16  12  82 NW6       30.35S WCI   8
HUTCHINSON     PTCLDY    17  11  78 W3        30.36F
$$
MNZ037-044-045-052-053-220800-
   East Central Minnesota

CITY           SKY/WX    TMP DP  RH WIND       PRES   REMARKS
PRINCETON      CLOUDY    14  10  85 CALM      30.33S
MORA           CLOUDY    18  10  73 CALM      30.33S
CAMBRIDGE      CLOUDY    18   9  68 W3        30.33S
RUSH CITY      CLOUDY    14   9  79 CALM      30.33S
MOOSE LAKE     CLOUDY    19  10  68 NW6       30.28S WCI  11
HINCKLEY       CLOUDY    19  12  73 NW5       30.31S WCI  13
CLOQUET        CLOUDY    18   9  68 W10       30.26R WCI   6
MCGREGOR       CLOUDY    14  10  85 CALM      30.29S
$$
MNZ071>073-080-081-089-090-097-098-220800-
   Southwest Minnesota

CITY           SKY/WX    TMP DP  RH WIND       PRES   REMARKS
MONTEVIDEO     CLOUDY    14   7  73 CALM      30.37F
GRANITE FALLS  CLOUDY    11   7  85 SW6       30.39F WCI   2
CANBY          PTCLDY    14   9  80 SW3       30.38S
MARSHALL       CLOUDY    12   6  77 W9        30.37F WCI   0
REDWOOD FALLS  CLOUDY    14   7  73 W6        30.36F WCI   5
OLIVIA         CLOUDY    16  10  79 CALM      30.35F
PIPESTONE      CLOUDY    14   7  73 N3        30.34R
WINDOM         CLOUDY    14   1  57 NW6       30.36R WCI   5
WORTHINGTON    CLOUDY    13   6  74 W3        30.35S
JACKSON        CLOUDY    14   9  79 CALM      30.36R
SLAYTON        PTCLDY    11   4  74 NW5       30.34F WCI   3
$$
MNZ065>067-074>077-082>085-091>093-220800-
   South Central Minnesota

CITY           SKY/WX    TMP DP  RH WIND       PRES   REMARKS
MANKATO        CLOUDY    16  11  80 NW7       30.37R WCI   6
NEW ULM        CLOUDY    16   9  73 CALM      30.37S
ST JAMES       CLOUDY    16  10  79 W9        30.38S WCI   4
FAIRMONT       CLOUDY    17  10  74 NW10      30.37S WCI   5
GLENCOE        CLOUDY    17  12  80 W5        30.35S WCI  10
FARIBAULT      CLOUDY    16  10  79 W5        30.35R WCI   9
OWATONNA       CLOUDY    16  10  79 W7        30.34R WCI   6
WASECA         CLOUDY    14  10  85 W5        30.36R WCI   6
ALBERT LEA     CLOUDY    18  10  73 NW6       30.33S WCI   9
$$
MNZ078>079-086>088-094>096-220800-
   Southeast Minnesota

CITY           SKY/WX    TMP DP  RH WIND       PRES   REMARKS
ROCHESTER      CLOUDY    15  11  83 NW9       30.30R WCI   3
RED WING       PTCLDY    18   9  68 CALM      30.34S
STANTON        CLOUDY    17  11  77 NW3       30.34R
DODGE CENTER   CLOUDY    16  10  79 NW8       30.31R WCI   5
WINONA         CLEAR     23  14  68 NW13      30.33R WCI  11
AUSTIN         CLOUDY    18  12  79 NW8       30.32R WCI   7
PRESTON        CLOUDY    16  11  81 NW6       30.30R WCI   8
$$
ABBREVIATIONS USED IN REMARKS
   TC - TEMPERATURES IN CELSIUS
  WCI - WIND CHILL INDEX
   HX - HEAT INDEX
  VSB - VISIBILITY
$$




USA.gov is the U.S. government's official web portal to all federal, state and local government web resources and services.